Temperature
19 19 19 19 19 18 18 18 18 18 18 18 18 18 18 18 18 18 18 18 18 18 18 18 17 17 17 17 17 17 17 17 17 17 17 17 17 17 17 17 16 16 16
19 19 19 19 19 19 18 18 18 18 18 18 18 18 18 18 18 18 18 18 18 18 18 18 17 17 17 17 17 17 17 17 17 17 17 17 17 17 17 17 16 16 16
19 19 19 19 19 19 18 18 18 18 18 18 18 18 18 18 18 18 18 18 18 18 18 17 17 17 17 17 17 17 17 17 17 17 17 17 17 17 17 17 16 16 16
19 19 19 19 19 19 19 19 18 18 18 18 18 18 18 18 18 18 18 18 18 18 18 17 17 17 17 17 17 17 17 17 17 17 17 17 17 17 17 17 16 16 16
19 19 19 19 19 19 19 18 18 18 18 18 18 18 18 18 18 18 18 18 18 18 18 17 17 17 17 17 17 17 17 17 17 17 17 17 17 17 17 17 16 16 16
19 19 19 19 19 19 19 19 19 19 18 19 19 19 19 19 19 18 18 18 18 18 18 17 17 17 17 17 17 17 17 17 17 17 17 17 17 17 17 17 16 16 16
19 19 19 19 19 19 19 19 19 19 19 19 19 19 19 19 19 19 18 18 18 18 18 18 17 17 17 17 17 17 17 17 17 17 17 16 16 16 16 17 16 16 16
19 19 19 19 19 19 19 19 19 19 19 19 19 18 19 19 19 19 19 19 18 18 18 18 17 17 17 17 17 17 17 17 17 17 17 17 16 16 16 16 16 16 16
19 19 19 19 19 19 19 19 19 19 19 19 19 19 18 19 19 19 19 18 18 18 18 18 18 17 17 17 17 17 17 17 17 17 17 17 16 16 16 16 16 16 16
19 19 19 19 19 19 19 19 19 19 19 19 19 19 19 18 18 18 18 19 18 18 18 18 17 17 17 17 17 17 17 17 17 17 17 17 17 16 16 16 16 16 16
19 19 19 19 19 19 19 19 19 19 19 18 18 18 18 18 18 18 18 18 18 18 18 18 17 17 17 17 17 17 17 17 17 17 16 16 16 16 16 16 16 16 16
19 19 19 19 19 19 19 19 19 19 19 18 18 18 18 18 18 18 18 18 18 18 18 18 17 17 17 17 17 17 17 17 16 16 16 16 16 16 16 16 16 16 16
20 19 19 19 19 19 19 18 18 18 18 18 18 18 18 18 18 18 18 18 18 18 18 18 17 17 17 17 17 17 16 16 16 16 16 16 16 16 16 16 16 16 16
19 19 19 19 19 19 18 18 18 18 18 18 18 18 18 18 18 18 18 18 18 17 17 18 17 17 17 17 17 16 16 16 16 16 16 16 16 16 16 16 16 16 16
19 19 19 19 19 19 18 18 18 18 18 18 18 18 18 18 18 18 18 18 17 17 17 17 17 17 17 17 17 16 16 16 16 16 16 16 16 16 16 16 16 15 15
19 19 19 18 18 18 18 18 18 18 18 18 18 18 18 18 18 18 18 18 17 17 17 17 17 17 17 16 16 16 16 16 16 16 16 16 15 15 15 15 15 15 15
19 19 18 18 18 18 18 18 18 18 18 18 17 17 17 18 18 18 18 17 17 17 17 17 17 17 17 16 16 16 16 16 16 16 16 16 16 15 15 15 15 15 15
18 18 18 18 18 18 18 18 18 17 17 17 17 17 17 17 17 17 17 17 17 17 17 16 16 16 16 16 16 16 16 16 16 16 16 16 16 15 15 15 15 15 15
18 18 18 18 18 18 18 18 17 17 17 17 17 17 17 17 17 17 17 17 17 17 16 16 16 16 16 16 16 16 16 16 15 15 15 15 15 15 15 15 15 15 15
18 18 18 18 18 18 18 18 17 17 17 17 17 17 17 17 17 17 17 17 17 16 16 16 16 15 15 15 15 15 15 15 15 15 15 15 15 15 15 15 15 15 15
18 18 18 18 17 17 17 17 17 17 17 17 17 17 17 17 17 17 16 16 16 16 16 16 15 15 15 15 15 15 15 15 15 15 15 15 15 15 15 15 15 15 14
18 18 18 17 17 17 17 17 17 17 17 17 17 17 16 16 16 16 16 16 16 16 15 15 15 15 15 15 15 15 15 14 14 15 15 15 15 15 15 15 15 14 14
18 18 17 17 17 17 17 17 17 17 17 16 16 16 16 16 16 16 16 16 16 15 15 15 15 15 15 15 15 15 14 14 14 14 14 14 14 14 14 14 14 14 14
17 17 17 17 17 17 17 17 17 16 16 16 16 16 16 16 16 16 15 15 15 15 15 15 15 15 14 14 14 14 14 14 14 14 14 14 14 14 14 14 14 14 14
17 17 17 17 16 17 17 16 16 16 16 16 16 16 15 15 15 15 15 15 15 15 15 14 14 14 14 14 14 14 14 14 14 14 14 14 14 14 14 14 14 13 14
17 16 16 16 16 16 16 16 16 16 15 15 15 15 15 15 15 15 14 14 14 14 14 14 14 14 14 14 14 14 13 13 13 13 14 14 13 13 13 13 13 13 13
Wind_Speed
3 3 2 3 4 4 4 3 2 3 2 2 2 2 1 1 3 5 6 8 8 7 7 7 7 6 6 6 6 6 7 8 8 8 8 8 8 8 9 9 9 9 9
4 3 2 2 2 3 3 3 2 3 2 2 1 1 2 2 3 5 7 8 9 9 9 8 8 7 7 7 7 7 8 8 8 9 9 9 9 9 9 10 10 10 10
4 3 2 2 2 3 4 3 3 3 2 2 2 2 2 2 3 4 6 7 8 10 10 10 9 8 8 8 8 7 8 8 9 9 10 10 10 9 10 11 10 10 10
4 2 2 2 2 3 2 2 2 2 2 2 2 3 2 2 3 4 5 7 8 8 10 11 10 9 9 9 8 8 8 8 9 9 10 10 9 10 10 10 10 10 9
4 2 1 1 3 2 2 2 2 2 2 2 3 3 3 3 3 4 4 5 7 8 8 11 11 10 9 9 9 9 9 9 9 10 10 10 10 9 9 10 10 10 10
2 2 2 2 2 1 1 1 1 1 1 2 3 2 3 3 3 3 4 4 5 7 8 9 10 9 10 10 9 9 9 9 10 10 11 10 9 9 9 10 11 10 11
2 1 0 1 1 1 2 1 1 1 2 1 1 1 2 3 3 3 3 2 3 5 7 9 9 8 8 11 11 10 9 9 10 11 11 11 10 10 9 10 11 11 11
2 2 1 1 1 1 2 1 1 1 2 1 1 1 1 1 1 2 3 3 3 3 4 6 7 8 8 7 9 11 10 9 10 10 11 11 11 10 10 10 10 11 11
2 0 1 1 0 1 2 2 2 2 2 2 1 1 1 1 2 1 1 1 2 3 3 3 4 6 7 6 6 9 10 9 9 10 10 11 11 10 10 10 10 10 11
2 1 1 0 1 0 1 2 2 2 3 3 2 1 1 1 1 1 2 1 3 3 3 2 1 3 5 6 5 7 9 10 9 8 8 9 9 9 9 9 9 10 11
2 1 1 1 1 1 1 1 0 2 2 3 2 2 1 1 2 2 2 2 2 2 2 2 1 1 4 6 5 7 9 9 9 9 8 8 8 8 8 8 8 8 9
2 2 2 1 1 1 1 1 1 2 2 3 3 2 2 1 2 2 3 2 3 2 1 1 2 2 3 5 5 7 9 9 8 8 9 9 8 8 8 8 8 8 8
1 1 2 2 1 1 1 1 2 2 2 2 2 3 2 2 2 2 2 3 2 2 1 1 2 2 3 4 5 8 8 9 9 8 8 8 9 8 8 8 7 7 7
1 2 2 2 2 2 2 2 2 2 2 2 3 3 3 3 3 3 2 2 2 2 1 2 1 2 2 4 6 7 6 9 10 9 8 8 8 8 7 7 7 7 6
1 2 2 3 3 3 2 1 1 2 1 2 2 3 3 4 3 3 2 3 2 2 3 2 1 1 2 4 7 6 5 7 9 9 9 8 8 8 8 8 7 6 6
2 1 0 1 2 1 1 1 2 1 2 2 2 3 3 4 3 3 2 2 2 2 2 2 2 1 1 2 5 5 5 7 9 9 9 9 8 8 8 8 8 7 6
1 1 1 2 2 2 2 2 2 2 2 2 3 2 3 3 4 4 3 2 2 2 3 3 2 1 1 1 3 4 5 6 7 9 9 9 9 8 9 9 9 8 8
2 2 2 2 3 2 2 2 3 2 2 3 2 2 3 3 3 3 4 3 3 2 2 3 2 1 1 2 2 3 4 5 5 9 10 10 9 8 9 9 10 10 9
3 3 3 2 2 2 2 3 3 3 3 3 2 2 2 3 3 3 4 3 3 3 1 2 2 1 1 1 1 2 2 1 4 6 9 10 9 9 9 9 9 10 9
2 2 3 3 3 2 2 3 2 3 3 3 2 1 2 1 2 4 4 4 3 3 2 1 1 1 1 1 1 2 1 1 2 3 4 6 8 9 9 9 9 9 9
2 2 3 3 3 3 2 1 2 3 3 3 2 1 1 0 1 2 3 3 3 2 2 1 1 0 0 0 1 2 2 1 2 1 1 3 4 5 6 8 9 9 8
2 2 3 3 3 3 2 1 2 3 3 3 2 1 1 1 1 0 2 3 2 2 2 1 1 1 1 1 1 2 1 1 2 1 1 3 3 3 4 5 9 11 11
2 3 3 3 3 2 2 2 3 3 3 2 2 1 2 1 1 1 1 1 2 2 2 2 2 2 2 2 2 2 2 2 2 2 1 3 2 2 3 6 11 13 13
3 3 3 3 3 3 3 3 3 3 3 2 2 3 2 1 2 1 2 2 2 2 3 1 1 2 2 1 2 3 4 3 3 2 2 2 2 3 2 3 10 12 13
4 3 3 3 3 3 4 4 3 3 3 3 3 2 2 2 2 2 2 2 2 2 1 1 1 2 3 3 2 1 3 2 3 2 1 2 2 2 2 2 5 10 10
3 3 3 3 4 3 4 5 4 3 3 3 2 2 2 2 3 2 3 3 3 3 2 2 2 2 3 3 3 3 3 3 3 2 1 1 2 1 2 2 2 4 5
Wind_Direction
104 114 138 145 144 151 167 174 173 156 153 181 199 199 211 143 146 155 159 170 176 183 186 186 197 201 208 213 213 216 213 208 206 207 210 211 209 206 207 204 203 202 202
116 124 127 119 130 156 174 171 169 152 168 190 206 212 205 179 183 172 166 179 190 192 191 195 205 211 212 216 219 219 215 211 208 207 208 207 205 207 207 204 204 205 206
127 133 134 135 162 173 166 171 177 155 168 191 202 217 217 207 197 183 176 182 186 194 200 202 206 210 214 218 219 218 212 214 212 210 209 209 206 208 207 206 206 204 204
129 132 139 157 181 173 170 171 169 183 181 187 209 228 205 205 201 198 196 188 185 189 199 202 201 208 214 216 218 217 215 217 215 213 209 209 208 207 206 205 205 204 203
140 149 146 177 196 180 181 185 151 177 194 198 213 221 216 201 202 208 195 192 191 181 181 192 201 207 212 215 217 218 217 218 218 213 209 209 209 207 207 206 205 207 207
142 155 164 192 209 160 148 127 144 199 227 238 251 235 222 200 194 202 206 193 187 191 184 180 188 205 217 220 219 217 216 219 214 210 207 205 205 204 204 206 206 207 209
160 191 124 195 192 188 170 159 171 229 239 235 260 267 247 217 195 194 197 195 198 195 186 178 183 190 199 217 219 216 213 217 214 209 203 205 206 206 207 209 209 209 212
174 187 164 221 212 178 166 188 220 241 258 235 241 289 293 268 279 211 184 199 212 199 189 195 190 192 194 191 204 212 212 211 212 210 208 208 210 213 215 216 213 213 216
167 228 138 269 279 184 179 197 226 229 256 257 234 238 279 289 311 277 226 209 209 219 212 197 191 193 189 184 190 201 202 207 213 216 215 214 214 216 219 219 220 220 221
198 189 145 184 304 306 204 228 202 253 258 270 269 263 247 254 285 304 300 242 215 228 226 235 200 178 181 177 176 176 191 199 203 209 214 213 213 214 218 223 226 224 224
195 170 162 178 240 265 240 249 235 273 269 273 284 265 260 237 237 247 274 280 262 232 209 218 180 155 177 175 168 166 176 186 194 201 207 213 214 213 217 222 228 230 229
183 180 183 194 235 256 253 247 237 239 264 293 305 293 268 268 268 256 257 259 265 262 190 210 184 192 181 166 175 163 167 178 191 200 206 212 216 215 218 223 223 226 231
186 177 193 178 215 234 245 231 233 249 251 268 283 288 296 289 281 276 278 275 273 269 223 226 203 194 184 155 151 161 172 178 187 196 204 211 213 214 215 220 224 230 231
196 168 173 179 205 229 247 217 244 236 236 249 271 283 295 292 288 280 263 267 275 269 260 247 230 193 156 148 149 164 178 181 190 195 201 204 207 210 209 208 217 228 234
237 159 174 193 203 215 243 216 235 252 233 242 265 271 265 277 281 278 279 265 239 259 275 256 248 207 162 147 154 166 174 188 193 195 194 198 205 209 209 208 208 214 222
340 354 289 243 223 216 225 232 254 238 233 250 255 283 286 291 301 293 288 288 265 251 265 272 269 255 170 191 172 174 184 189 191 194 196 200 204 210 207 207 205 208 213
280 285 292 283 251 224 223 223 242 242 234 253 269 276 280 289 304 309 305 296 277 254 256 274 282 282 188 219 177 189 190 178 189 197 197 201 202 204 206 206 207 208 210
245 242 244 260 260 244 229 229 240 250 234 240 254 279 292 295 300 308 308 300 288 275 251 266 277 252 223 207 193 211 215 203 183 193 195 197 200 203 205 207 208 210 210
234 239 241 234 247 258 254 245 237 249 254 259 256 261 281 296 310 312 310 308 307 301 261 246 264 254 263 266 214 246 235 230 208 190 194 198 197 200 203 207 209 209 207
214 227 252 245 238 243 268 276 257 248 257 263 261 269 284 287 303 307 305 309 305 301 295 267 250 240 219 239 218 258 268 265 246 207 191 188 194 202 206 207 207 207 208
226 232 249 253 247 235 250 257 277 260 255 257 253 250 272 102 35 350 317 323 320 313 304 287 262 270 189 185 261 260 259 252 231 222 217 189 188 198 207 215 213 206 204
229 234 234 245 251 256 262 231 237 268 264 254 253 264 243 184 116 43 327 333 334 308 307 301 286 264 246 251 267 266 271 274 260 246 236 236 191 204 200 195 200 201 204
233 239 240 245 244 243 270 290 257 259 256 265 260 254 273 270 196 226 257 280 313 296 261 242 257 260 255 263 276 283 288 279 263 251 244 264 229 227 213 197 191 198 204
238 237 234 237 241 242 242 241 242 235 242 242 238 232 242 247 288 286 275 288 285 304 291 283 260 263 259 276 276 273 261 254 240 250 225 247 251 247 248 184 191 196 204
240 237 233 233 233 239 244 240 228 231 237 243 238 241 222 211 263 246 240 255 267 281 325 59 155 203 220 253 265 293 287 271 264 258 242 238 249 244 231 222 205 202 200
240 240 240 237 230 233 232 228 227 238 243 248 231 222 211 224 251 240 240 247 253 261 263 272 254 240 228 231 228 229 254 267 266 255 252 247 251 256 249 230 207 199 214
Height
1529 1530 1531 1532 1533 1533 1534 1535 1536 1537 1538 1538 1539 1540 1540 1541 1541 1541 1542 1542 1542 1542 1542 1542 1542 1543 1543 1543 1543 1543 1543 1544 1545 1546 1547 1548 1550 1551 1552 1553 1554 1556 1557
1530 1531 1532 1533 1534 1534 1535 1536 1536 1537 1538 1538 1539 1540 1540 1540 1540 1541 1541 1541 1541 1541 1541 1541 1541 1541 1541 1541 1541 1540 1541 1541 1542 1543 1544 1546 1547 1549 1550 1551 1552 1554 1555
1531 1532 1532 1533 1534 1535 1535 1536 1537 1537 1538 1538 1538 1539 1539 1539 1540 1540 1540 1540 1539 1540 1539 1540 1540 1540 1540 1539 1539 1538 1539 1539 1540 1541 1542 1543 1545 1546 1548 1549 1550 1552 1553
1532 1532 1533 1533 1534 1535 1535 1536 1536 1537 1537 1537 1537 1538 1538 1538 1538 1539 1539 1538 1538 1538 1538 1538 1538 1538 1538 1537 1536 1536 1536 1537 1537 1538 1539 1540 1542 1544 1545 1547 1548 1549 1550
1532 1532 1533 1533 1534 1535 1535 1536 1536 1536 1536 1537 1536 1536 1537 1537 1537 1537 1537 1537 1537 1537 1537 1537 1536 1536 1536 1535 1534 1534 1534 1533 1534 1535 1536 1538 1539 1541 1543 1544 1546 1547 1548
1532 1532 1533 1533 1534 1534 1535 1535 1535 1536 1536 1536 1536 1536 1536 1535 1535 1535 1536 1536 1536 1536 1535 1535 1535 1534 1534 1533 1533 1532 1531 1531 1531 1531 1533 1535 1537 1539 1540 1541 1543 1544 1545
1532 1533 1533 1533 1534 1534 1534 1535 1535 1535 1535 1535 1535 1535 1535 1534 1534 1534 1534 1534 1534 1534 1534 1534 1533 1532 1532 1531 1531 1530 1529 1529 1528 1529 1530 1532 1534 1536 1537 1539 1540 1541 1542
1533 1533 1533 1533 1533 1533 1533 1533 1534 1534 1534 1535 1535 1534 1534 1534 1533 1533 1533 1533 1533 1533 1533 1533 1532 1531 1531 1530 1529 1529 1528 1527 1527 1528 1529 1531 1532 1533 1535 1536 1537 1538 1540
1532 1532 1532 1532 1532 1532 1532 1532 1533 1533 1533 1534 1534 1534 1533 1532 1532 1533 1533 1532 1532 1532 1532 1531 1531 1530 1529 1528 1528 1527 1526 1526 1526 1527 1528 1529 1530 1531 1532 1533 1534 1535 1536
1532 1531 1531 1531 1531 1531 1531 1531 1531 1532 1532 1532 1533 1533 1533 1532 1532 1531 1532 1531 1531 1530 1530 1530 1529 1528 1528 1527 1526 1525 1525 1525 1525 1525 1526 1527 1527 1528 1529 1530 1531 1532 1533
1531 1530 1530 1530 1530 1530 1530 1530 1530 1530 1530 1531 1531 1531 1531 1531 1530 1530 1529 1529 1529 1528 1528 1528 1527 1526 1526 1525 1525 1524 1524 1524 1524 1524 1524 1525 1525 1526 1527 1528 1528 1529 1530
1529 1529 1529 1529 1529 1529 1529 1528 1528 1528 1528 1529 1529 1529 1529 1529 1529 1529 1528 1527 1526 1526 1526 1526 1525 1525 1524 1523 1523 1522 1522 1522 1522 1522 1522 1523 1523 1523 1524 1525 1526 1526 1527
1528 1528 1528 1528 1528 1527 1527 1527 1527 1527 1526 1527 1527 1527 1527 1527 1527 1527 1526 1525 1525 1524 1524 1523 1523 1523 1522 1522 1521 1521 1520 1520 1520 1520 1520 1521 1521 1521 1522 1522 1523 1524 1524
1527 1527 1527 1526 1526 1526 1525 1525 1525 1525 1525 1525 1525 1525 1525 1525 1525 1525 1524 1524 1522 1522 1521 1520 1520 1519 1519 1519 1518 1518 1518 1518 1517 1517 1518 1518 1518 1519 1519 1520 1520 1521 1521
1525 1525 1525 1524 1524 1524 1524 1524 1523 1523 1523 1523 1523 1523 1523 1523 1523 1522 1522 1522 1522 1520 1519 1518 1518 1517 1517 1516 1516 1516 1516 1516 1515 1515 1515 1516 1516 1516 1516 1517 1517 1518 1518
1523 1523 1523 1523 1522 1522 1522 1522 1521 1521 1521 1521 1521 1521 1521 1520 1520 1520 1520 1519 1519 1518 1517 1516 1516 1515 1515 1515 1514 1514 1514 1514 1513 1513 1513 1513 1513 1513 1513 1514 1514 1515 1515
1521 1521 1521 1521 1521 1520 1520 1520 1520 1519 1519 1519 1519 1518 1518 1518 1518 1517 1517 1517 1516 1516 1514 1513 1514 1513 1512 1512 1511 1511 1512 1511 1511 1511 1511 1511 1511 1510 1510 1511 1511 1512 1513
1517 1518 1518 1518 1519 1518 1518 1518 1518 1517 1517 1517 1516 1516 1516 1515 1515 1514 1514 1514 1513 1513 1512 1511 1510 1510 1509 1509 1509 1509 1509 1509 1509 1509 1509 1509 1508 1508 1508 1508 1509 1509 1510
1514 1515 1515 1515 1516 1516 1516 1516 1515 1515 1515 1514 1514 1514 1513 1513 1512 1512 1511 1511 1510 1510 1509 1509 1507 1507 1507 1507 1507 1507 1507 1507 1507 1507 1507 1506 1506 1506 1505 1505 1506 1506 1507
1512 1512 1513 1513 1514 1514 1514 1513 1513 1513 1513 1512 1512 1511 1511 1510 1509 1509 1509 1508 1508 1507 1507 1506 1505 1504 1504 1504 1504 1504 1504 1505 1505 1505 1504 1504 1504 1504 1503 1503 1503 1503 1503
1511 1511 1510 1511 1511 1511 1511 1511 1511 1511 1510 1510 1509 1509 1508 1508 1507 1507 1506 1505 1505 1504 1504 1503 1502 1502 1501 1501 1501 1501 1502 1502 1502 1502 1502 1502 1502 1501 1501 1500 1500 1500 1500
1509 1509 1508 1508 1509 1509 1509 1509 1508 1508 1508 1507 1507 1506 1505 1505 1504 1504 1504 1503 1503 1502 1501 1500 1500 1499 1499 1499 1499 1500 1500 1500 1499 1500 1500 1500 1499 1499 1498 1498 1498 1498 1498
1506 1506 1506 1506 1506 1506 1506 1506 1505 1505 1505 1504 1503 1503 1503 1502 1501 1501 1500 1500 1500 1499 1499 1498 1497 1497 1497 1497 1497 1497 1497 1497 1497 1497 1498 1497 1497 1496 1496 1495 1495 1495 1495
1503 1503 1503 1503 1503 1503 1503 1502 1502 1502 1502 1501 1500 1500 1500 1499 1499 1498 1497 1497 1496 1495 1495 1495 1494 1494 1494 1494 1494 1495 1494 1494 1494 1494 1494 1494 1494 1493 1493 1492 1493 1492 1492
1500 1500 1500 1500 1499 1499 1499 1499 1499 1499 1498 1498 1497 1497 1497 1496 1495 1495 1495 1494 1493 1492 1492 1492 1492 1491 1491 1491 1491 1491 1491 1491 1490 1490 1491 1491 1491 1490 1490 1490 1490 1490 1489
1498 1497 1497 1497 1496 1496 1496 1496 1496 1496 1495 1494 1494 1494 1494 1493 1492 1492 1492 1491 1490 1489 1489 1488 1488 1488 1488 1487 1488 1488 1487 1487 1487 1487 1487 1488 1487 1487 1487 1486 1486 1486 1486